EW4055 Weather Reports


Display with metric or nautical units.
time (UTC)temp
F
wind
direction
speed
MPH
gust
MPH
rain 1hr
in
rain 24hr
in
rain mn
in
humidity
%
barometer
mb
20260509192121 63 104 1.0 2.0 0.00 0.00 0.00 74 1015.8
20260509191121 63 104 1.0 4.0 0.00 0.00 0.00 73 1015.7
20260509190152 64 89 3.0 4.0 0.00 0.00 0.00 73 1015.5
20260509185122 64 111 2.0 4.0 0.00 0.00 0.00 73 1015.6
20260509184119 64 97 3.0 5.0 0.00 0.00 0.00 72 1015.6
20260509183116 64 99 4.0 6.0 0.00 0.00 0.00 72 1015.5
20260509182121 65 86 5.0 6.0 0.00 0.00 0.00 71 1015.5
20260509181132 65 96 5.0 6.0 0.00 0.00 0.00 71 1015.5
20260509180140 65 80 4.0 6.0 0.00 0.00 0.00 71 1015.4
20260509175121 65 86 3.0 4.0 0.00 0.00 0.00 70 1015.5
20260509174119 65 55 3.0 4.0 0.00 0.00 0.00 70 1015.4
20260509173115 66 73 3.0 5.0 0.00 0.00 0.00 69 1015.6
20260509172126 66 90 2.0 7.0 0.00 0.00 0.00 68 1015.5
20260509171119 67 87 4.0 6.0 0.00 0.00 0.00 67 1015.5
20260509170139 67 75 4.0 7.0 0.00 0.00 0.00 66 1015.4
20260509165113 67 78 4.0 7.0 0.00 0.00 0.00 65 1015.5
20260509164119 68 65 4.0 9.0 0.00 0.00 0.00 64 1015.5
20260509163210 68 73 3.0 7.0 0.00 0.00 0.00 63 1015.6
20260509163124 68 66 4.0 7.0 0.00 0.00 0.00 63 1015.5
20260509161112 69 79 6.0 10.0 0.00 0.00 0.00 63 1015.6
20260509160156 69 59 4.0 9.0 0.00 0.00 0.00 64 1015.6
20260509155113 69 45 5.0 11.0 0.00 0.00 0.00 64 1015.6
20260509154110 69 80 6.0 10.0 0.00 0.00 0.00 64 1015.8
20260509153109 70 11 3.0 6.0 0.00 0.00 0.00 63 1016.0
20260509152109 69 25 3.0 9.0 0.00 0.00 0.00 64 1016.1
20260509151108 70 59 5.0 9.0 0.00 0.00 0.00 63 1016.1
20260509150137 70 23 6.0 11.0 0.00 0.00 0.00 62 1016.1
20260509145204 70 58 4.0 10.0 0.00 0.00 0.00 60 1016.1
20260509145121 70 52 5.0 11.0 0.00 0.00 0.00 62 1016.0
20260509143133 70 72 5.0 10.0 0.00 0.00 0.00 61 1016.2
20260509142346 71 82 8.0 13.0 0.00 0.00 0.00 58 1016.2
20260509141658 71 24 4.0 11.0 0.00 0.00 0.00 61 1016.3
20260509141246 71 52 6.0 11.0 0.00 0.00 0.00 59 1016.3
20260509135106 71 83 8.0 11.0 0.00 0.00 0.00 57 1016.3
20260509134738 72 90 6.0 11.0 0.00 0.00 0.00 56 1016.4
20260509133102 73 0 4.0 10.0 0.00 0.00 0.00 56 1016.5
20260509132103 73 56 5.0 9.0 0.00 0.00 0.00 54 1016.7
20260509131103 73 66 5.0 10.0 0.00 0.00 0.00 54 1016.7
20260509130111 72 27 5.0 11.0 0.00 0.00 0.00 54 1016.8
20260509125103 72 80 6.0 12.0 0.00 0.00 0.00 56 1016.9
20260509124059 73 76 6.0 10.0 0.00 0.00 0.00 53 1017.1
20260509123102 72 55 4.0 7.0 0.00 0.00 0.00 56 1016.9
20260509122739 72 0 6.0 9.0 0.00 0.00 0.00 56 1017.1
20260509121103 72 55 6.0 10.0 0.00 0.00 0.00 56 1017.2
20260509120114 72 63 5.0 10.0 0.00 0.00 0.00 58 1017.2
20260509115601 71 34 9.0 12.0 0.00 0.00 0.00 56 1017.2
20260509115223 71 61 7.0 11.0 0.00 0.00 0.00 57 1017.2
20260509113101 71 86 6.0 10.0 0.00 0.00 0.00 59 1017.1
20260509112903 71 27 7.0 13.0 0.00 0.00 0.00 57 1017.2
20260509111059 71 44 7.0 13.0 0.00 0.00 0.00 57 1017.3
20260509110107 72 110 6.0 11.0 0.00 0.00 0.00 57 1017.2
20260509105051 71 8 8.0 14.0 0.00 0.00 0.00 57 1017.3
20260509104746 72 20 6.0 12.0 0.00 0.00 0.00 59 1017.4
20260509103044 72 20 5.0 11.0 0.00 0.00 0.00 56 1017.4
20260509102051 72 66 3.0 7.0 0.00 0.00 0.00 50 1017.5
20260509101048 73 92 4.0 9.0 0.00 0.00 0.00 49 1017.6
20260509100127 73 49 2.0 6.0 0.00 0.00 0.00 49 1017.4
20260509095038 72 338 3.0 6.0 0.00 0.00 0.00 52 1017.4
20260509094040 72 73 5.0 9.0 0.00 0.00 0.00 51 1017.5
20260509093040 71 305 0.0 7.0 0.00 0.00 0.00 49 1017.5
20260509092040 71 80 1.0 7.0 0.00 0.00 0.00 50 1017.5
20260509091039 71 357 2.0 4.0 0.00 0.00 0.00 54 1017.6
20260509090052 70 333 2.0 7.0 0.00 0.00 0.00 54 1017.5
20260509085725 69 55 4.0 6.0 0.00 0.00 0.00 52 1017.6
20260509085229 69 58 2.0 6.0 0.00 0.00 0.00 56 1017.5
20260509083025 69 0 4.0 7.0 0.00 0.00 0.00 52 1017.6
20260509082025 69 8 3.0 6.0 0.00 0.00 0.00 54 1017.7
20260509081751 69 358 4.0 7.0 0.00 0.00 0.00 58 1017.8
20260509080104 68 0 2.0 5.0 0.00 0.00 0.00 61 1017.9
20260509075026 67 290 2.0 5.0 0.00 0.00 0.00 63 1017.9
20260509074024 65 309 2.0 4.0 0.00 0.00 0.00 66 1017.9
20260509073019 65 306 2.0 4.0 0.00 0.00 0.00 68 1017.9
20260509072016 64 281 2.0 4.0 0.00 0.00 0.00 72 1017.8
20260509071737 63 303 2.0 5.0 0.00 0.00 0.00 76 1017.7
20260509070011 62 281 0.0 4.0 0.00 0.00 0.00 79 1017.7
20260509065001 61 309 2.0 3.0 0.00 0.00 0.00 81 1017.7
20260509064706 60 288 2.0 2.0 0.00 0.00 0.00 81 1017.7
20260509063003 60 272 1.0 4.0 0.00 0.00 0.00 82 1017.8
20260509062005 59 279 2.0 4.0 0.00 0.00 0.00 83 1017.7
20260509061003 58 283 2.0 5.0 0.00 0.00 0.00 84 1017.8
20260509060003 57 292 2.0 4.0 0.00 0.00 0.00 85 1017.8
20260509055002 56 290 2.0 4.0 0.00 0.00 0.00 85 1017.8
20260509054000 56 264 2.0 4.0 0.00 0.00 0.00 86 1017.6
20260509052959 55 248 2.0 5.0 0.00 0.00 0.00 87 1017.5
20260509052002 55 286 2.0 4.0 0.00 0.00 0.00 87 1017.4
20260509051000 54 264 2.0 3.0 0.00 0.00 0.00 87 1017.3
20260509045958 54 265 2.0 5.0 0.00 0.00 0.00 86 1017.3
20260509044959 55 275 3.0 6.0 0.00 0.00 0.00 86 1017.3
20260509044003 55 268 3.0 4.0 0.00 0.00 0.00 87 1017.4
20260509043722 55 278 2.0 4.0 0.00 0.00 0.00 87 1017.2
20260509042002 55 282 3.0 4.0 0.00 0.00 0.00 86 1016.8
20260509040959 55 309 3.0 5.0 0.00 0.00 0.00 86 1016.8
20260509040727 55 296 3.0 5.0 0.00 0.00 0.00 86 1016.9
20260509035738 55 296 4.0 6.0 0.00 0.00 0.00 87 1016.9
20260509033959 55 303 3.0 5.0 0.00 0.00 0.00 86 1016.8
20260509033000 55 300 4.0 6.0 0.00 0.00 0.00 87 1016.7
20260509032439 55 298 4.0 4.0 0.00 0.00 0.00 87 1016.8
20260509032118 55 290 3.0 5.0 0.00 0.00 0.00 87 1016.9
20260509025959 55 307 3.0 4.0 0.00 0.00 0.00 87 1016.7
20260509024957 55 307 1.0 3.0 0.00 0.00 0.00 86 1016.8
20260509023958 55 307 2.0 3.0 0.00 0.00 0.00 86 1016.7
20260509023000 55 307 1.0 3.0 0.00 0.00 0.00 85 1016.7
20260509021959 55 307 2.0 3.0 0.00 0.00 0.00 85 1016.7
20260509020954 56 307 2.0 3.0 0.00 0.00 0.00 85 1016.7
20260509015956 56 307 3.0 5.0 0.00 0.00 0.00 85 1016.6
20260509014957 56 290 3.0 4.0 0.00 0.00 0.00 85 1016.6
20260509014703 55 272 2.0 4.0 0.00 0.00 0.00 85 1016.6
20260509013717 55 275 2.0 2.0 0.00 0.00 0.00 86 1016.6
20260509011955 55 281 1.0 3.0 0.00 0.00 0.00 85 1016.4
20260509010959 55 285 3.0 4.0 0.00 0.00 0.00 85 1016.4
20260509005955 56 272 2.0 2.0 0.00 0.00 0.00 85 1016.3
20260509004955 56 272 1.0 4.0 0.00 0.00 0.00 85 1016.4
20260509003955 56 265 2.0 3.0 0.00 0.00 0.00 85 1016.4
20260509003724 56 279 2.0 4.0 0.00 0.00 0.00 85 1016.5
20260509001956 56 290 2.0 3.0 0.00 1.01 0.00 85 1016.5
20260509001418 56 268 2.0 4.0 0.00 1.01 0.00 85 1016.6
20260509001111 56 275 2.0 3.0 0.00 1.01 0.00 85 1016.6
20260508234952 56 289 2.0 3.0 0.00 1.01 0.00 84 1016.6
20260508233951 56 289 2.0 5.0 0.00 1.01 0.00 84 1016.6
20260508232950 56 278 3.0 5.0 0.00 1.01 0.00 84 1016.7
20260508231948 57 285 1.0 3.0 0.00 1.01 0.00 83 1016.8
20260508230950 57 293 2.0 3.0 0.00 1.01 0.00 82 1016.8
20260508225947 57 289 1.0 3.0 0.00 1.01 0.00 82 1016.8
20260508224942 58 38 0.0 1.0 0.00 1.01 0.00 82 1016.8
20260508223944 58 38 0.0 1.0 0.00 1.01 0.00 82 1016.8
20260508222939 58 38 0.0 0.0 0.00 1.01 0.00 83 1016.8
20260508221946 58 38 0.0 0.0 0.00 1.01 0.00 83 1016.8
20260508220941 58 38 0.0 1.0 0.00 1.01 0.00 82 1016.9
20260508215942 58 38 1.0 2.0 0.00 1.01 1.01 82 1016.8
20260508214943 58 38 0.0 2.0 0.00 1.01 1.01 82 1016.9
20260508213935 58 38 1.0 2.0 0.00 1.01 1.01 82 1016.9
20260508212935 58 38 0.0 0.0 0.00 1.01 1.01 82 1016.9
20260508211935 58 38 0.0 0.0 0.00 1.01 1.01 82 1016.9
20260508210938 59 38 0.0 0.0 0.00 1.01 1.01 82 1016.8
20260508205934 59 38 0.0 0.0 0.00 1.01 1.01 81 1016.8
20260508204934 59 38 0.0 1.0 0.00 1.01 1.01 80 1016.8
20260508203937 59 38 0.0 0.0 0.00 1.01 1.01 81 1016.8
20260508202933 59 38 1.0 2.0 0.00 1.01 1.01 80 1016.8
20260508201931 59 38 1.0 2.0 0.00 1.01 1.01 80 1016.7
20260508200932 59 38 0.0 1.0 0.00 1.01 1.01 80 1016.7
20260508195934 59 38 0.0 0.0 0.00 1.01 1.01 79 1016.6
20260508194932 60 38 0.0 0.0 0.00 1.01 1.01 80 1016.6
20260508193932 60 38 0.0 1.0 0.00 1.01 1.01 79 1016.4
20260508193704 60 38 1.0 2.0 0.00 1.01 1.01 79 1016.3